This is the latest recevied weather packets stored in our database for station/object HB9CJD-1. If no packets are shown the sender has not sent any weather packets the latest 10 day(s).
| Time | Temp. | Humidity | Pressure | Rain* | Wind** | Luminosity | Snow |
|---|---|---|---|---|---|---|---|
| 1777276077 | 13.33° C | 51% | 1022.6 hPa | - | - | - | - |
| 1777276077 | 13.33° C | 51% | 1022.6 hPa | - | - | - | - |
| 1777275474 | 12.78° C | 54% | 1022.6 hPa | - | - | - | - |
| 1777275473 | 12.78° C | 54% | 1022.6 hPa | - | - | - | - |
| 1777274870 | 11.67° C | 55% | 1022.8 hPa | - | - | - | - |
| 1777274870 | 11.67° C | 55% | 1022.8 hPa | - | - | - | - |
| 1777274267 | 11.67° C | 59% | 1022.8 hPa | - | - | - | - |
| 1777274267 | 11.67° C | 59% | 1022.8 hPa | - | - | - | - |
| 1777273664 | 11.11° C | 60% | 1022.9 hPa | - | - | - | - |
| 1777273664 | 11.11° C | 60% | 1022.9 hPa | - | - | - | - |
| 1777273060 | 10.56° C | 57% | 1022.8 hPa | - | - | - | - |
| 1777273060 | 10.56° C | 57% | 1022.8 hPa | - | - | - | - |
| 1777272457 | 10° C | 62% | 1022.8 hPa | - | - | - | - |
| 1777271854 | 10° C | 61% | 1022.8 hPa | - | - | - | - |
| 1777271854 | 10° C | 61% | 1022.8 hPa | - | - | - | - |
| 1777271251 | 10° C | 61% | 1022.7 hPa | - | - | - | - |
| 1777271251 | 10° C | 61% | 1022.7 hPa | - | - | - | - |
| 1777270647 | 9.44° C | 61% | 1022.8 hPa | - | - | - | - |
| 1777270647 | 9.44° C | 61% | 1022.8 hPa | - | - | - | - |
| 1777270044 | 9.44° C | 59% | 1022.6 hPa | - | - | - | - |
| 1777270044 | 9.44° C | 59% | 1022.6 hPa | - | - | - | - |
| 1777269441 | 9.44° C | 58% | 1022.7 hPa | - | - | - | - |
| 1777269441 | 9.44° C | 58% | 1022.7 hPa | - | - | - | - |
| 1777268838 | 9.44° C | 59% | 1022.6 hPa | - | - | - | - |
| 1777268838 | 9.44° C | 59% | 1022.6 hPa | - | - | - | - |
* Rain since midnight (hover to see other rain measurements)
** Current wind speed in m/s (hover to see current wind gust speed)